Location: Allie Creek
(37.5926°N, 89.8526°W)
Time: 17:22:07
(UTC+00:00)

deb Delta 139 - Visible Passes

Search period start: 08 September 2024 00:00
Search period end: 18 September 2024 00:00
Orbit: 772 x 1139 km, 98.9° (Epoch: 07 September)

Date Brightness Start Highest point End Pass type
(mag) Time Alt. Az. Time Alt. Az. Time Alt. Az.
08 Sep ? 02:32:52 10° N 02:38:02 77° WNW 02:39:13 53° SSW visible
09 Sep ? 01:10:39 10° NE 01:13:41 16° E 01:13:54 16° E visible
09 Sep ? 02:51:56 10° N 02:56:54 50° WNW 02:58:06 41° WSW visible
10 Sep ? 01:28:39 10° NE 01:32:47 24° E 01:32:47 24° E visible
10 Sep ? 03:11:09 10° N 03:15:42 33° WNW 03:16:59 29° W visible
11 Sep ? 01:47:04 10° NNE 01:51:38 37° E 01:51:38 37° E visible
11 Sep ? 03:30:33 10° NNW 03:34:25 22° WNW 03:35:50 20° W visible
12 Sep ? 02:05:42 10° NNE 02:10:29 57° E 02:10:29 57° E visible
12 Sep ? 03:50:18 10° NNW 03:53:05 15° WNW 03:54:41 13° W visible
13 Sep ? 02:24:29 10° NNE 02:29:18 80° NNE 02:29:18 80° NNE visible
14 Sep ? 01:02:49 10° ENE 01:03:55 12° ENE 01:03:55 12° ENE visible
14 Sep ? 02:43:25 10° N 02:48:07 58° NW 02:48:07 58° NW visible
15 Sep ? 01:20:24 10° NE 01:22:42 18° ENE 01:22:42 18° ENE visible
15 Sep ? 03:02:28 10° N 03:06:55 39° WNW 03:06:55 39° WNW visible
16 Sep ? 01:38:35 10° NE 01:41:29 26° ENE 01:41:29 26° ENE visible
16 Sep ? 03:21:41 10° NNW 03:25:41 26° WNW 03:25:41 26° WNW visible
17 Sep ? 01:57:03 10° NNE 02:00:15 35° NE 02:00:15 35° NE visible
17 Sep ? 03:41:08 10° NNW 03:44:27 18° WNW 03:44:27 18° WNW visible
